Time,TemperatureF,DewpointF,PressureIn,WindDirection,WindDirectionDegrees,WindSpeedMPH,WindSpeedGustMPH,Humidity,HourlyPrecipIn,Conditions,Clouds,dailyrainin,SoftwareType,DateUTC
2013-02-19 00:04:00,41.0,39.1,30.73,ENE,78,5.8,5.8,93,0.00,FEW,,0.00,WeatherDisplay:10.37,2013-02-19 00:04:00,
2013-02-19 00:09:00,41.0,39.1,30.73,ENE,78,5.8,5.8,93,0.00,FEW,,0.00,WeatherDisplay:10.37,2013-02-19 00:09:00,
2013-02-19 00:14:00,41.2,39.3,30.73,SE,145,5.8,5.8,93,0.00,FEW,,0.00,WeatherDisplay:10.37,2013-02-19 00:14:00,
2013-02-19 00:19:00,41.0,39.1,30.73,SE,145,5.8,5.8,93,0.00,FEW,,0.00,WeatherDisplay:10.37,2013-02-19 00:19:00,
2013-02-19 00:24:00,40.8,39.0,30.73,ESE,122,3.5,3.5,93,0.00,FEW,,0.00,WeatherDisplay:10.37,2013-02-19 00:24:00,
2013-02-19 00:29:00,40.6,38.8,30.73,SE,145,3.5,3.5,93,0.00,FEW,,0.00,WeatherDisplay:10.37,2013-02-19 00:29:00,
2013-02-19 00:34:00,40.6,38.8,30.73,ENE,78,4.6,4.6,93,0.00,FEW,,0.00,WeatherDisplay:10.37,2013-02-19 00:34:00,
2013-02-19 00:39:00,40.8,39.0,30.73,ENE,78,5.8,5.8,93,0.00,FEW,,0.00,WeatherDisplay:10.37,2013-02-19 00:39:00,
2013-02-19 00:44:00,41.0,38.9,30.73,ENE,78,5.8,5.8,92,0.00,FEW,,0.00,WeatherDisplay:10.37,2013-02-19 00:44:00,
2013-02-19 00:49:00,41.2,39.0,30.73,SE,145,5.8,5.8,92,0.00,FEW,,0.00,WeatherDisplay:10.37,2013-02-19 00:49:00,
2013-02-19 00:54:00,41.0,38.6,30.73,ENE,78,4.6,4.6,91,0.00,FEW,,0.00,WeatherDisplay:10.37,2013-02-19 00:54:00,
2013-02-19 00:59:00,41.2,38.8,30.73,ESE,122,4.6,4.6,91,0.00,FEW,,0.00,WeatherDisplay:10.37,2013-02-19 00:59:00,
2013-02-19 01:04:00,40.8,38.4,30.73,WNW,302,6.9,6.9,91,0.00,FEW,,0.00,WeatherDisplay:10.37,2013-02-19 01:04:00,
2013-02-19 01:10:00,40.8,38.4,30.73,SE,145,2.3,2.9,91,0.00,FEW,,0.00,WeatherDisplay:10.37,2013-02-19 01:10:00,
2013-02-19 01:15:00,40.8,38.4,30.73,SE,145,3.7,3.7,91,0.00,FEW,,0.00,WeatherDisplay:10.37,2013-02-19 01:15:00,
2013-02-19 01:20:00,40.8,38.4,30.73,SE,145,3.5,3.5,91,0.00,FEW,,0.00,WeatherDisplay:10.37,2013-02-19 01:20:00,
2013-02-19 01:25:00,40.6,38.2,30.73,SE,145,6.9,6.9,91,0.00,FEW,,0.00,WeatherDisplay:10.37,2013-02-19 01:25:00,
2013-02-19 01:30:00,40.8,38.4,30.73,East,100,5.2,5.2,91,0.00,FEW,,0.00,WeatherDisplay:10.37,2013-02-19 01:30:00,
2013-02-19 01:35:00,40.6,37.9,30.73,East,100,4.6,4.6,90,0.00,FEW,,0.00,WeatherDisplay:10.37,2013-02-19 01:35:00,
2013-02-19 01:40:00,40.8,38.1,30.73,ENE,78,5.8,5.8,90,0.00,FEW,,0.00,WeatherDisplay:10.37,2013-02-19 01:40:00,
2013-02-19 01:45:00,40.8,38.1,30.73,East,100,5.8,5.8,90,0.00,FEW,,0.00,WeatherDisplay:10.37,2013-02-19 01:45:00,
2013-02-19 01:50:00,40.8,37.8,30.73,SE,145,3.5,3.5,89,0.00,FEW,,0.00,WeatherDisplay:10.37,2013-02-19 01:50:00,
2013-02-19 01:55:00,40.8,37.8,30.73,ESE,122,6.9,6.9,89,0.00,FEW,,0.00,WeatherDisplay:10.37,2013-02-19 01:55:00,
2013-02-19 02:00:00,40.8,37.8,30.73,ENE,78,8.3,8.3,89,0.00,FEW,,0.00,WeatherDisplay:10.37,2013-02-19 02:00:00,
2013-02-19 02:05:00,40.8,37.8,30.73,ESE,122,6.9,6.9,89,0.00,FEW,,0.00,WeatherDisplay:10.37,2013-02-19 02:05:00,
2013-02-19 02:10:00,40.8,37.8,30.73,East,100,5.8,5.8,89,0.00,FEW,,0.00,WeatherDisplay:10.37,2013-02-19 02:10:00,
2013-02-19 02:16:00,40.8,37.8,30.73,ESE,122,5.8,5.8,89,0.00,FEW,,0.00,WeatherDisplay:10.37,2013-02-19 02:16:00,
2013-02-19 02:21:00,40.8,37.8,30.73,ENE,78,4.6,4.6,89,0.00,FEW,,0.00,WeatherDisplay:10.37,2013-02-19 02:21:00,
2013-02-19 02:27:00,40.6,37.7,30.73,ENE,78,5.8,5.8,89,0.00,FEW,,0.00,WeatherDisplay:10.37,2013-02-19 02:27:00,
2013-02-19 02:32:00,40.6,37.7,30.73,ESE,122,2.5,2.8,89,0.00,FEW,,0.00,WeatherDisplay:10.37,2013-02-19 02:32:00,
2013-02-19 02:37:00,40.8,37.8,30.73,ESE,122,4.6,4.6,89,0.00,FEW,,0.00,WeatherDisplay:10.37,2013-02-19 02:37:00,
2013-02-19 02:42:00,40.5,37.5,30.73,ESE,122,3.5,3.5,89,0.00,FEW,,0.00,WeatherDisplay:10.37,2013-02-19 02:42:00,
2013-02-19 02:47:00,40.5,37.8,30.73,ENE,78,5.8,5.8,90,0.00,FEW,,0.00,WeatherDisplay:10.37,2013-02-19 02:47:00,
2013-02-19 02:52:00,40.6,37.9,30.73,ESE,122,4.6,4.6,90,0.00,FEW,,0.00,WeatherDisplay:10.37,2013-02-19 02:52:00,
2013-02-19 02:58:00,40.5,37.8,30.73,ENE,78,5.4,5.4,90,0.00,FEW,,0.00,WeatherDisplay:10.37,2013-02-19 02:58:00,
2013-02-19 03:03:00,40.5,37.8,30.73,ESE,122,2.3,3.6,90,0.00,FEW,,0.00,WeatherDisplay:10.37,2013-02-19 03:03:00,
2013-02-19 03:08:00,40.5,37.8,30.73,ENE,78,1.6,3.6,90,0.00,FEW,,0.00,WeatherDisplay:10.37,2013-02-19 03:08:00,
2013-02-19 03:13:00,40.5,37.8,30.73,ENE,78,1.6,3.6,90,0.00,FEW,,0.00,WeatherDisplay:10.37,2013-02-19 03:13:00,
2013-02-19 03:18:00,40.5,38.0,30.69,NW,325,4.6,4.6,91,0.00,FEW,,0.00,WeatherDisplay:10.37,2013-02-19 03:18:00,
2013-02-19 03:24:00,40.5,38.0,30.69,ENE,78,5.7,5.7,91,0.00,FEW,,0.00,WeatherDisplay:10.37,2013-02-19 03:24:00,
2013-02-19 03:29:00,40.5,38.0,30.69,ESE,122,6.9,6.9,91,0.00,FEW,,0.00,WeatherDisplay:10.37,2013-02-19 03:29:00,
2013-02-19 03:34:00,40.3,37.6,30.69,ESE,122,4.5,4.5,90,0.00,FEW,,0.00,WeatherDisplay:10.37,2013-02-19 03:34:00,
2013-02-19 03:39:00,40.5,38.0,30.69,ENE,78,2.8,3.0,91,0.00,FEW,,0.00,WeatherDisplay:10.37,2013-02-19 03:39:00,
2013-02-19 03:44:00,40.3,37.9,30.69,ENE,78,3.5,3.5,91,0.00,FEW,,0.00,WeatherDisplay:10.37,2013-02-19 03:44:00,
2013-02-19 03:49:00,40.3,37.9,30.69,East,100,5.8,5.8,91,0.00,FEW,,0.00,WeatherDisplay:10.37,2013-02-19 03:49:00,
2013-02-19 03:54:00,39.9,37.5,30.69,East,100,3.4,3.4,91,0.00,FEW,,0.00,WeatherDisplay:10.37,2013-02-19 03:54:00,
2013-02-19 03:59:00,40.1,37.7,30.69,East,100,4.6,4.6,91,0.00,FEW,,0.00,WeatherDisplay:10.37,2013-02-19 03:59:00,
2013-02-19 04:05:00,39.7,37.3,30.69,ENE,78,3.5,3.5,91,0.00,FEW,,0.00,WeatherDisplay:10.37,2013-02-19 04:05:00,
2013-02-19 04:10:00,39.9,37.5,30.69,East,100,2.3,2.5,91,0.00,FEW,,0.00,WeatherDisplay:10.37,2013-02-19 04:10:00,
2013-02-19 04:15:00,39.9,37.5,30.69,SE,145,4.6,4.6,91,0.00,FEW,,0.00,WeatherDisplay:10.37,2013-02-19 04:15:00,
2013-02-19 04:20:00,39.9,37.8,30.69,East,100,3.5,3.5,92,0.00,FEW,,0.00,WeatherDisplay:10.37,2013-02-19 04:20:00,
2013-02-19 04:25:00,39.9,37.8,30.69,SE,145,3.6,3.6,92,0.00,FEW,,0.00,WeatherDisplay:10.37,2013-02-19 04:25:00,
2013-02-19 04:30:00,39.9,37.5,30.69,ESE,122,3.5,3.5,91,0.00,FEW,,0.00,WeatherDisplay:10.37,2013-02-19 04:30:00,
2013-02-19 04:35:00,39.9,37.8,30.69,East,100,4.6,4.6,92,0.00,FEW,,0.00,WeatherDisplay:10.37,2013-02-19 04:35:00,
2013-02-19 04:40:00,39.7,37.3,30.69,SE,145,2.3,2.3,91,0.00,FEW,,0.00,WeatherDisplay:10.37,2013-02-19 04:40:00,
2013-02-19 04:45:00,39.4,37.0,30.69,SE,145,5.8,5.8,91,0.00,FEW,,0.00,WeatherDisplay:10.37,2013-02-19 04:45:00,
2013-02-19 04:50:00,39.2,36.8,30.69,SE,145,1.1,1.1,91,0.00,FEW,,0.00,WeatherDisplay:10.37,2013-02-19 04:50:00,
2013-02-19 04:55:00,38.8,36.7,30.69,ENE,78,2.3,2.3,92,0.00,FEW,,0.00,WeatherDisplay:10.37,2013-02-19 04:55:00,
2013-02-19 05:00:00,38.7,36.5,30.69,ENE,78,0.0,0.7,92,0.00,FEW,,0.00,WeatherDisplay:10.37,2013-02-19 05:00:00,
2013-02-19 05:01:00,38.7,36.5,30.69,ESE,122,0.0,0.5,92,0.00,FEW,,0.00,WeatherDisplay:10.37,2013-02-19 05:01:00,
2013-02-19 05:06:00,38.3,36.2,30.69,NW,325,0.0,0.4,92,0.00,FEW,,0.00,WeatherDisplay:10.37,2013-02-19 05:06:00,
2013-02-19 05:11:00,37.9,35.5,30.69,NW,325,0.0,0.0,91,0.00,FEW,,0.00,WeatherDisplay:10.37,2013-02-19 05:11:00,
2013-02-19 05:16:00,37.2,34.8,30.69,NW,325,0.0,0.0,91,0.00,FEW,,0.00,WeatherDisplay:10.37,2013-02-19 05:16:00,
2013-02-19 05:21:00,36.9,34.5,30.69,NW,325,0.0,0.0,91,0.00,FEW,,0.00,WeatherDisplay:10.37,2013-02-19 05:21:00,
2013-02-19 05:26:00,36.3,33.9,30.69,NW,325,0.0,0.0,91,0.00,FEW,,0.00,WeatherDisplay:10.37,2013-02-19 05:26:00,
2013-02-19 05:31:00,36.1,33.8,30.69,ENE,78,0.0,0.0,91,0.00,FEW,,0.00,WeatherDisplay:10.37,2013-02-19 05:31:00,
2013-02-19 05:36:00,35.6,33.2,30.69,ENE,78,0.0,0.0,91,0.00,FEW,,0.00,WeatherDisplay:10.37,2013-02-19 05:36:00,
2013-02-19 05:41:00,35.6,33.5,30.69,East,100,0.0,0.1,92,0.00,FEW,,0.00,WeatherDisplay:10.37,2013-02-19 05:41:00,
2013-02-19 05:46:00,35.4,33.3,30.69,ENE,78,1.1,1.1,92,0.00,FEW,,0.00,WeatherDisplay:10.37,2013-02-19 05:46:00,
2013-02-19 05:51:00,35.4,33.3,30.69,ENE,78,0.0,0.1,92,0.00,FEW,,0.00,WeatherDisplay:10.37,2013-02-19 05:51:00,
2013-02-19 05:56:00,35.1,33.0,30.69,ENE,78,0.0,0.0,92,0.00,FEW,,0.00,WeatherDisplay:10.37,2013-02-19 05:56:00,
2013-02-19 06:01:00,35.4,33.6,30.69,East,100,1.1,1.1,93,0.00,FEW,,0.00,WeatherDisplay:10.37,2013-02-19 06:01:00,
2013-02-19 06:06:00,35.1,33.2,30.69,East,100,1.1,1.1,93,0.00,FEW,,0.00,WeatherDisplay:10.37,2013-02-19 06:06:00,
2013-02-19 06:11:00,35.1,33.2,30.69,East,100,1.6,1.6,93,0.00,FEW,,0.00,WeatherDisplay:10.37,2013-02-19 06:11:00,
2013-02-19 06:16:00,34.3,32.5,30.69,ESE,122,0.0,0.1,93,0.00,FEW,,0.00,WeatherDisplay:10.37,2013-02-19 06:16:00,
2013-02-19 06:21:00,34.2,32.3,30.69,SE,145,1.1,1.1,93,0.00,FEW,,0.00,WeatherDisplay:10.37,2013-02-19 06:21:00,
2013-02-19 06:26:00,34.0,32.2,30.69,ENE,78,0.0,0.0,93,0.00,FEW,,0.00,WeatherDisplay:10.37,2013-02-19 06:26:00,
2013-02-19 06:31:00,34.0,32.2,30.69,ENE,78,0.0,0.0,93,0.00,FEW,,0.00,WeatherDisplay:10.37,2013-02-19 06:31:00,
2013-02-19 06:36:00,33.6,31.8,30.69,ENE,78,0.0,0.0,93,0.00,FEW,,0.00,WeatherDisplay:10.37,2013-02-19 06:36:00,
2013-02-19 06:41:00,33.4,31.6,30.69,ENE,78,0.0,0.0,93,0.00,FEW,,0.00,WeatherDisplay:10.37,2013-02-19 06:41:00,
2013-02-19 06:46:00,33.4,31.6,30.69,SE,145,0.0,0.0,93,0.00,FEW,,0.00,WeatherDisplay:10.37,2013-02-19 06:46:00,
2013-02-19 06:51:00,33.3,31.5,30.69,SE,145,0.0,0.0,93,0.00,FEW,,0.00,WeatherDisplay:10.37,2013-02-19 06:51:00,
2013-02-19 06:56:00,32.9,31.1,30.69,SE,145,0.0,0.0,93,0.00,FEW,,0.00,WeatherDisplay:10.37,2013-02-19 06:56:00,
2013-02-19 07:01:00,32.9,31.1,30.69,SE,145,0.0,0.0,93,0.00,FEW,,0.00,WeatherDisplay:10.37,2013-02-19 07:01:00,
2013-02-19 07:06:00,32.7,31.2,30.69,SE,145,0.0,0.0,94,0.00,FEW,,0.00,WeatherDisplay:10.37,2013-02-19 07:06:00,
2013-02-19 07:11:00,32.5,31.0,30.69,SE,145,0.0,0.0,94,0.00,FEW,,0.00,WeatherDisplay:10.37,2013-02-19 07:11:00,
2013-02-19 07:16:00,32.4,30.8,30.69,SE,145,0.0,0.0,94,0.00,FEW,,0.00,WeatherDisplay:10.37,2013-02-19 07:16:00,
2013-02-19 07:21:00,32.5,31.0,30.69,SE,145,0.0,0.0,94,0.00,FEW,,0.00,WeatherDisplay:10.37,2013-02-19 07:21:00,
2013-02-19 07:26:00,32.0,30.5,30.69,SE,145,0.0,0.0,94,0.00,FEW,,0.00,WeatherDisplay:10.37,2013-02-19 07:26:00,
2013-02-19 07:31:00,31.8,30.3,30.69,SE,145,0.0,0.0,94,0.00,FEW,,0.00,WeatherDisplay:10.37,2013-02-19 07:31:00,
2013-02-19 07:36:00,32.0,30.5,30.69,ENE,78,0.0,0.0,94,0.00,FEW,,0.00,WeatherDisplay:10.37,2013-02-19 07:36:00,
2013-02-19 07:41:00,32.2,30.6,30.69,ENE,78,0.0,0.0,94,0.00,FEW,,0.00,WeatherDisplay:10.37,2013-02-19 07:41:00,
2013-02-19 07:46:00,32.0,30.5,30.69,ENE,78,0.0,0.0,94,0.00,FEW,,0.00,WeatherDisplay:10.37,2013-02-19 07:46:00,
2013-02-19 07:51:00,32.0,30.5,30.69,ENE,78,0.0,0.0,94,0.00,FEW,,0.00,WeatherDisplay:10.37,2013-02-19 07:51:00,
2013-02-19 07:56:00,32.0,30.5,30.69,ENE,78,0.0,0.1,94,0.00,FEW,,0.00,WeatherDisplay:10.37,2013-02-19 07:56:00,
2013-02-19 08:01:00,32.2,30.6,30.69,East,100,0.0,0.1,94,0.00,SCT,FEW,0.00,WeatherDisplay:10.37,2013-02-19 08:01:00,
2013-02-19 08:06:00,32.2,30.6,30.69,ENE,78,0.0,0.0,94,0.00,SCT,FEW,0.00,WeatherDisplay:10.37,2013-02-19 08:06:00,
2013-02-19 08:11:00,32.5,31.3,30.69,SE,145,0.0,0.0,95,0.00,SCT,FEW,0.00,WeatherDisplay:10.37,2013-02-19 08:11:00,
2013-02-19 08:16:00,32.7,31.4,30.69,ESE,122,1.1,1.1,95,0.00,SCT,FEW,0.00,WeatherDisplay:10.37,2013-02-19 08:16:00,
2013-02-19 08:21:00,33.1,31.8,30.69,SE,145,0.0,0.2,95,0.00,SCT,FEW,0.00,WeatherDisplay:10.37,2013-02-19 08:21:00,
2013-02-19 08:26:00,34.0,32.7,30.69,NW,325,3.5,3.5,95,0.00,SCT,FEW,0.00,WeatherDisplay:10.37,2013-02-19 08:26:00,
2013-02-19 08:31:00,34.9,33.9,30.69,ESE,122,1.1,1.1,96,0.00,SCT,FEW,0.00,WeatherDisplay:10.37,2013-02-19 08:31:00,
2013-02-19 08:36:00,35.8,34.8,30.69,East,100,2.3,2.3,96,0.00,SCT,FEW,0.00,WeatherDisplay:10.37,2013-02-19 08:36:00,
2013-02-19 08:41:00,36.0,34.9,30.69,ESE,122,0.0,0.8,96,0.00,SCT,FEW,0.00,WeatherDisplay:10.37,2013-02-19 08:41:00,
2013-02-19 08:46:00,36.3,35.3,30.69,WSW,258,2.3,2.3,96,0.00,SCT,FEW,0.00,WeatherDisplay:10.37,2013-02-19 08:46:00,
2013-02-19 08:51:00,36.9,35.8,30.69,SE,145,1.2,1.2,96,0.00,SCT,FEW,0.00,WeatherDisplay:10.37,2013-02-19 08:51:00,
2013-02-19 08:56:00,37.2,36.2,30.69,SE,145,2.3,2.3,96,0.00,SCT,FEW,0.00,WeatherDisplay:10.37,2013-02-19 08:56:00,
2013-02-19 09:01:00,37.4,36.4,30.69,ENE,78,1.1,2.1,96,0.00,SCT,FEW,0.00,WeatherDisplay:10.37,2013-02-19 09:01:00,
2013-02-19 09:06:00,37.8,36.7,30.69,ENE,78,3.5,3.5,96,0.00,SCT,FEW,0.00,WeatherDisplay:10.37,2013-02-19 09:06:00,
2013-02-19 09:11:00,38.1,37.1,30.69,SE,145,1.1,1.2,96,0.00,SCT,FEW,0.00,WeatherDisplay:10.37,2013-02-19 09:11:00,
2013-02-19 09:16:00,38.3,37.3,30.69,ESE,122,2.3,2.3,96,0.00,SCT,FEW,0.00,WeatherDisplay:10.37,2013-02-19 09:16:00,
2013-02-19 09:21:00,38.5,37.4,30.69,SE,145,2.1,2.1,96,0.00,SCT,FEW,0.00,WeatherDisplay:10.37,2013-02-19 09:21:00,
2013-02-19 09:26:00,38.8,37.8,30.69,ESE,122,3.5,3.5,96,0.00,SCT,FEW,0.00,WeatherDisplay:10.37,2013-02-19 09:26:00,
2013-02-19 09:31:00,39.2,38.2,30.69,SE,145,1.1,1.1,96,0.00,SCT,FEW,0.00,WeatherDisplay:10.37,2013-02-19 09:31:00,
2013-02-19 09:36:00,39.4,38.3,30.69,ESE,122,3.5,3.5,96,0.00,SCT,FEW,0.00,WeatherDisplay:10.37,2013-02-19 09:36:00,
2013-02-19 09:41:00,39.7,38.4,30.69,SE,145,2.3,2.3,95,0.00,SCT,FEW,0.00,WeatherDisplay:10.37,2013-02-19 09:41:00,
2013-02-19 09:46:00,40.3,39.0,30.69,ENE,78,2.5,2.5,95,0.00,SCT,FEW,0.00,WeatherDisplay:10.37,2013-02-19 09:46:00,
2013-02-19 09:51:00,40.6,39.3,30.69,ESE,122,3.7,3.7,95,0.00,SCT,FEW,0.00,WeatherDisplay:10.37,2013-02-19 09:51:00,
2013-02-19 09:56:00,41.0,39.4,30.69,ESE,122,4.6,4.6,94,0.00,SCT,FEW,0.00,WeatherDisplay:10.37,2013-02-19 09:56:00,
2013-02-19 10:02:00,41.4,39.5,30.69,ENE,78,4.6,4.6,93,0.00,SCT,FEW,0.00,WeatherDisplay:10.37,2013-02-19 10:02:00,
2013-02-19 10:07:00,41.9,40.0,30.69,ENE,78,4.6,4.6,93,0.00,SCT,FEW,0.00,WeatherDisplay:10.37,2013-02-19 10:07:00,
2013-02-19 10:12:00,42.1,39.6,30.69,ENE,78,2.8,2.8,91,0.00,SCT,FEW,0.00,WeatherDisplay:10.37,2013-02-19 10:12:00,
2013-02-19 10:17:00,42.3,39.8,30.69,ESE,122,1.6,2.4,91,0.00,SCT,FEW,0.00,WeatherDisplay:10.37,2013-02-19 10:17:00,
2013-02-19 10:22:00,42.8,40.4,30.69,East,100,2.3,2.3,91,0.00,SCT,FEW,0.00,WeatherDisplay:10.37,2013-02-19 10:22:00,
2013-02-19 10:27:00,42.8,40.1,30.69,East,100,3.5,3.5,90,0.00,SCT,FEW,0.00,WeatherDisplay:10.37,2013-02-19 10:27:00,
2013-02-19 10:32:00,43.3,40.6,30.69,West,280,2.3,2.3,90,0.00,SCT,FEW,0.00,WeatherDisplay:10.37,2013-02-19 10:32:00,
2013-02-19 10:37:00,43.3,40.3,30.69,East,100,5.0,5.0,89,0.00,SCT,FEW,0.00,WeatherDisplay:10.37,2013-02-19 10:37:00,
2013-02-19 10:42:00,43.7,40.7,30.85,ENE,78,1.7,2.5,89,0.00,SCT,FEW,0.00,WeatherDisplay:10.37,2013-02-19 10:42:00,
2013-02-19 10:47:00,43.9,40.6,30.85,ENE,78,4.6,4.6,88,0.00,SCT,FEW,0.00,WeatherDisplay:10.37,2013-02-19 10:47:00,
2013-02-19 10:52:00,44.1,40.7,30.85,East,100,8.1,8.1,88,0.00,SCT,FEW,0.00,WeatherDisplay:10.37,2013-02-19 10:52:00,
2013-02-19 10:57:00,44.1,40.7,30.85,ESE,122,1.2,2.8,88,0.00,SCT,FEW,0.00,WeatherDisplay:10.37,2013-02-19 10:57:00,
2013-02-19 11:02:00,44.4,40.8,30.85,SE,145,4.6,4.6,87,0.00,SCT,FEW,0.00,WeatherDisplay:10.37,2013-02-19 11:02:00,
2013-02-19 11:07:00,44.8,41.1,30.85,ESE,122,2.3,2.8,87,0.00,SCT,FEW,0.00,WeatherDisplay:10.37,2013-02-19 11:07:00,
2013-02-19 11:12:00,45.0,41.3,30.85,East,100,3.5,3.5,87,0.00,SCT,FEW,0.00,WeatherDisplay:10.37,2013-02-19 11:12:00,
2013-02-19 11:17:00,45.1,41.2,30.85,ENE,78,5.8,5.8,86,0.00,SCT,FEW,0.00,WeatherDisplay:10.37,2013-02-19 11:17:00,
2013-02-19 11:22:00,45.0,40.7,30.85,ENE,78,6.9,6.9,85,0.00,SCT,FEW,0.00,WeatherDisplay:10.37,2013-02-19 11:22:00,
2013-02-19 11:27:00,45.0,40.7,30.85,East,100,6.9,6.9,85,0.00,SCT,FEW,0.00,WeatherDisplay:10.37,2013-02-19 11:27:00,
2013-02-19 11:32:00,45.1,40.6,30.85,ESE,122,3.5,4.0,84,0.00,SCT,FEW,0.00,WeatherDisplay:10.37,2013-02-19 11:32:00,
2013-02-19 11:37:00,45.1,40.6,30.85,ESE,122,3.5,4.2,84,0.00,SCT,FEW,0.00,WeatherDisplay:10.37,2013-02-19 11:37:00,
2013-02-19 11:42:00,45.5,40.9,30.83,ESE,122,4.6,4.6,84,0.00,SCT,FEW,0.00,WeatherDisplay:10.37,2013-02-19 11:42:00,
2013-02-19 11:47:00,45.5,40.9,30.83,ENE,78,4.6,4.6,84,0.00,SCT,FEW,0.00,WeatherDisplay:10.37,2013-02-19 11:47:00,
2013-02-19 11:52:00,45.5,40.6,30.83,East,100,5.8,5.8,83,0.00,SCT,FEW,0.00,WeatherDisplay:10.37,2013-02-19 11:52:00,
2013-02-19 11:57:00,45.7,40.8,30.83,ESE,122,6.0,6.0,83,0.00,SCT,FEW,0.00,WeatherDisplay:10.37,2013-02-19 11:57:00,
2013-02-19 12:02:00,45.5,40.6,30.83,ENE,78,5.1,5.1,83,0.00,SCT,FEW,0.00,WeatherDisplay:10.37,2013-02-19 12:02:00,
2013-02-19 12:07:00,45.7,40.8,30.83,ENE,78,5.1,5.1,83,0.00,SCT,FEW,0.00,WeatherDisplay:10.37,2013-02-19 12:07:00,
2013-02-19 12:12:00,45.7,40.8,30.83,ENE,78,4.6,4.6,83,0.00,SCT,FEW,0.00,WeatherDisplay:10.37,2013-02-19 12:12:00,
2013-02-19 12:17:00,45.9,41.0,30.83,ENE,78,4.6,4.6,83,0.00,SCT,FEW,0.00,WeatherDisplay:10.37,2013-02-19 12:17:00,
2013-02-19 12:22:00,46.2,41.0,30.83,ESE,122,5.8,5.8,82,0.00,SCT,FEW,0.00,WeatherDisplay:10.37,2013-02-19 12:22:00,
2013-02-19 12:27:00,46.0,40.9,30.83,ENE,78,2.3,3.7,82,0.00,SCT,FEW,0.00,WeatherDisplay:10.37,2013-02-19 12:27:00,
2013-02-19 12:32:00,46.2,41.0,30.83,ENE,78,6.9,6.9,82,0.00,SCT,FEW,0.00,WeatherDisplay:10.37,2013-02-19 12:32:00,
2013-02-19 12:37:00,46.2,40.7,30.83,ENE,78,2.8,3.1,81,0.00,SCT,FEW,0.00,WeatherDisplay:10.37,2013-02-19 12:37:00,
2013-02-19 12:42:00,46.2,41.0,30.83,ENE,78,8.1,8.1,82,0.00,SCT,FEW,0.00,WeatherDisplay:10.37,2013-02-19 12:42:00,
2013-02-19 12:47:00,46.4,41.2,30.83,East,100,5.8,5.8,82,0.00,SCT,FEW,0.00,WeatherDisplay:10.37,2013-02-19 12:47:00,
2013-02-19 12:52:00,46.2,41.0,30.83,ESE,122,5.2,5.2,82,0.00,SCT,FEW,0.00,WeatherDisplay:10.37,2013-02-19 12:52:00,
2013-02-19 12:57:00,46.6,41.4,30.83,ENE,78,5.8,5.8,82,0.00,SCT,FEW,0.00,WeatherDisplay:10.37,2013-02-19 12:57:00,
2013-02-19 13:02:00,46.4,40.9,30.83,ESE,122,5.8,5.8,81,0.00,SCT,FEW,0.00,WeatherDisplay:10.37,2013-02-19 13:02:00,
2013-02-19 13:07:00,46.4,40.9,30.83,ENE,78,6.9,6.9,81,0.00,SCT,FEW,0.00,WeatherDisplay:10.37,2013-02-19 13:07:00,
2013-02-19 13:12:00,46.4,40.6,30.83,ENE,78,5.8,5.8,80,0.00,SCT,FEW,0.00,WeatherDisplay:10.37,2013-02-19 13:12:00,
2013-02-19 13:17:00,46.2,40.7,30.83,ESE,122,5.8,5.8,81,0.00,SCT,FEW,0.00,WeatherDisplay:10.37,2013-02-19 13:17:00,
2013-02-19 13:22:00,46.6,41.1,30.83,SE,145,6.9,6.9,81,0.00,SCT,FEW,0.00,WeatherDisplay:10.37,2013-02-19 13:22:00,
2013-02-19 13:27:00,46.4,40.9,30.83,ENE,78,5.8,5.8,81,0.00,SCT,FEW,0.00,WeatherDisplay:10.37,2013-02-19 13:27:00,
2013-02-19 13:32:00,46.6,41.1,30.83,ESE,122,3.5,3.5,81,0.00,SCT,FEW,0.00,WeatherDisplay:10.37,2013-02-19 13:32:00,
2013-02-19 13:37:00,46.4,40.9,30.83,East,100,4.0,4.0,81,0.00,SCT,FEW,0.00,WeatherDisplay:10.37,2013-02-19 13:37:00,
2013-02-19 13:42:00,46.4,40.6,30.83,ESE,122,5.8,5.8,80,0.00,SCT,FEW,0.00,WeatherDisplay:10.37,2013-02-19 13:42:00,
2013-02-19 13:47:00,46.4,40.6,30.83,ESE,122,6.9,6.9,80,0.00,SCT,FEW,0.00,WeatherDisplay:10.37,2013-02-19 13:47:00,
2013-02-19 13:52:00,46.4,40.6,30.83,ENE,78,4.5,4.5,80,0.00,SCT,FEW,0.00,WeatherDisplay:10.37,2013-02-19 13:52:00,
2013-02-19 13:57:00,46.4,40.6,30.83,ESE,122,6.2,6.2,80,0.00,SCT,FEW,0.00,WeatherDisplay:10.37,2013-02-19 13:57:00,
2013-02-19 14:02:00,46.4,40.6,30.83,ESE,122,6.9,6.9,80,0.00,SCT,FEW,0.00,WeatherDisplay:10.37,2013-02-19 14:02:00,
2013-02-19 14:07:00,46.4,40.9,30.83,ENE,78,6.9,6.9,81,0.00,SCT,FEW,0.00,WeatherDisplay:10.37,2013-02-19 14:07:00,
2013-02-19 14:12:00,46.2,40.4,30.83,NW,325,5.8,5.8,80,0.00,SCT,FEW,0.00,WeatherDisplay:10.37,2013-02-19 14:12:00,
2013-02-19 14:17:00,46.4,40.6,30.83,ENE,78,6.9,6.9,80,0.00,SCT,FEW,0.00,WeatherDisplay:10.37,2013-02-19 14:17:00,
2013-02-19 14:22:00,46.2,40.4,30.83,East,100,6.2,6.2,80,0.00,SCT,FEW,0.00,WeatherDisplay:10.37,2013-02-19 14:22:00,
2013-02-19 14:27:00,46.4,40.6,30.83,ENE,78,6.9,6.9,80,0.00,SCT,FEW,0.00,WeatherDisplay:10.37,2013-02-19 14:27:00,
2013-02-19 14:32:00,46.4,40.6,30.83,SE,145,5.8,5.8,80,0.00,SCT,FEW,0.00,WeatherDisplay:10.37,2013-02-19 14:32:00,
2013-02-19 14:38:00,46.4,40.6,30.83,ENE,78,6.9,6.9,80,0.00,SCT,FEW,0.00,WeatherDisplay:10.37,2013-02-19 14:38:00,
2013-02-19 14:43:00,46.4,40.6,30.83,West,280,5.8,5.8,80,0.00,SCT,FEW,0.00,WeatherDisplay:10.37,2013-02-19 14:43:00,
2013-02-19 14:48:00,46.2,40.4,30.83,ENE,78,6.6,6.6,80,0.00,SCT,FEW,0.00,WeatherDisplay:10.37,2013-02-19 14:48:00,
2013-02-19 14:53:00,46.2,40.7,30.83,ENE,78,5.8,5.8,81,0.00,SCT,FEW,0.00,WeatherDisplay:10.37,2013-02-19 14:53:00,
2013-02-19 14:58:00,46.2,40.7,30.82,East,100,6.9,6.9,81,0.00,SCT,FEW,0.00,WeatherDisplay:10.37,2013-02-19 14:58:00,
2013-02-19 15:03:00,46.0,40.5,30.82,ENE,78,6.9,6.9,81,0.00,FEW,,0.00,WeatherDisplay:10.37,2013-02-19 15:03:00,
2013-02-19 15:08:00,46.2,40.7,30.82,NE,55,6.9,6.9,81,0.00,FEW,,0.00,WeatherDisplay:10.37,2013-02-19 15:08:00,
2013-02-19 15:13:00,46.2,40.7,30.82,East,100,5.8,5.8,81,0.00,FEW,,0.00,WeatherDisplay:10.37,2013-02-19 15:13:00,
2013-02-19 15:18:00,46.2,41.0,30.82,ENE,78,3.5,4.1,82,0.00,FEW,,0.00,WeatherDisplay:10.37,2013-02-19 15:18:00,
2013-02-19 15:23:00,46.2,40.7,30.82,ENE,78,8.1,8.1,81,0.00,FEW,,0.00,WeatherDisplay:10.37,2013-02-19 15:23:00,
2013-02-19 15:28:00,46.2,41.0,30.82,ENE,78,6.9,6.9,82,0.00,FEW,,0.00,WeatherDisplay:10.37,2013-02-19 15:28:00,
2013-02-19 15:33:00,45.9,40.7,30.82,ENE,78,3.5,3.9,82,0.00,FEW,,0.00,WeatherDisplay:10.37,2013-02-19 15:33:00,
2013-02-19 15:38:00,45.9,40.7,30.82,ENE,78,6.9,6.9,82,0.00,FEW,,0.00,WeatherDisplay:10.37,2013-02-19 15:38:00,
2013-02-19 15:43:00,45.7,40.2,30.82,ENE,78,6.9,6.9,81,0.00,FEW,,0.00,WeatherDisplay:10.37,2013-02-19 15:43:00,
2013-02-19 15:48:00,45.9,40.7,30.82,SE,145,4.6,4.6,82,0.00,FEW,,0.00,WeatherDisplay:10.37,2013-02-19 15:48:00,
2013-02-19 15:53:00,45.7,40.2,30.82,North,10,5.8,5.8,81,0.00,FEW,,0.00,WeatherDisplay:10.37,2013-02-19 15:53:00,
2013-02-19 15:58:00,45.7,40.2,30.82,ENE,78,3.4,3.4,81,0.00,FEW,,0.00,WeatherDisplay:10.37,2013-02-19 15:58:00,
2013-02-19 16:03:00,45.5,40.0,30.82,ENE,78,3.5,3.5,81,0.00,FEW,,0.00,WeatherDisplay:10.37,2013-02-19 16:03:00,
2013-02-19 16:08:00,45.5,40.0,30.82,ENE,78,2.8,2.8,81,0.00,FEW,,0.00,WeatherDisplay:10.37,2013-02-19 16:08:00,
2013-02-19 16:13:00,45.5,40.0,30.82,East,100,4.6,4.6,81,0.00,FEW,,0.00,WeatherDisplay:10.37,2013-02-19 16:13:00,
2013-02-19 16:18:00,45.1,40.0,30.82,East,100,5.8,5.8,82,0.00,FEW,,0.00,WeatherDisplay:10.37,2013-02-19 16:18:00,
2013-02-19 16:23:00,45.0,39.8,30.82,ENE,78,4.6,4.6,82,0.00,FEW,,0.00,WeatherDisplay:10.37,2013-02-19 16:23:00,
2013-02-19 16:28:00,45.0,39.8,30.82,ESE,122,3.5,3.5,82,0.00,FEW,,0.00,WeatherDisplay:10.37,2013-02-19 16:28:00,
2013-02-19 16:33:00,45.0,39.8,30.82,ESE,122,3.5,3.5,82,0.00,FEW,,0.00,WeatherDisplay:10.37,2013-02-19 16:33:00,
2013-02-19 16:38:00,44.8,39.6,30.82,ENE,78,5.8,5.8,82,0.00,FEW,,0.00,WeatherDisplay:10.37,2013-02-19 16:38:00,
2013-02-19 16:43:00,44.8,39.9,30.82,ENE,78,4.6,4.6,83,0.00,FEW,,0.00,WeatherDisplay:10.37,2013-02-19 16:43:00,
2013-02-19 16:48:00,44.8,39.9,30.82,ENE,78,5.8,5.8,83,0.00,FEW,,0.00,WeatherDisplay:10.37,2013-02-19 16:48:00,
2013-02-19 16:53:00,44.6,39.8,30.82,ENE,78,3.5,3.9,83,0.00,FEW,,0.00,WeatherDisplay:10.37,2013-02-19 16:53:00,
2013-02-19 16:58:00,44.2,39.4,30.82,ENE,78,2.3,2.8,83,0.00,FEW,,0.00,WeatherDisplay:10.37,2013-02-19 16:58:00,
2013-02-19 17:03:00,44.2,39.4,30.82,ESE,122,3.5,3.5,83,0.00,FEW,,0.00,WeatherDisplay:10.37,2013-02-19 17:03:00,
2013-02-19 17:08:00,43.9,39.4,30.82,East,100,3.7,3.7,84,0.00,FEW,,0.00,WeatherDisplay:10.37,2013-02-19 17:08:00,
2013-02-19 17:13:00,43.7,39.2,30.82,ENE,78,3.7,3.7,84,0.00,FEW,,0.00,WeatherDisplay:10.37,2013-02-19 17:13:00,
2013-02-19 17:18:00,43.5,39.0,30.82,ESE,122,3.5,3.5,84,0.00,FEW,,0.00,WeatherDisplay:10.37,2013-02-19 17:18:00,
2013-02-19 17:23:00,43.2,38.7,30.82,ENE,78,5.8,5.8,84,0.00,FEW,,0.00,WeatherDisplay:10.37,2013-02-19 17:23:00,
2013-02-19 17:28:00,43.0,38.8,30.82,ENE,78,3.5,3.5,85,0.00,FEW,,0.00,WeatherDisplay:10.37,2013-02-19 17:28:00,
2013-02-19 17:33:00,42.8,38.3,30.82,ESE,122,1.2,2.4,84,0.00,FEW,,0.00,WeatherDisplay:10.37,2013-02-19 17:33:00,
2013-02-19 17:38:00,42.6,38.4,30.79,East,100,2.3,2.3,85,0.00,FEW,,0.00,WeatherDisplay:10.37,2013-02-19 17:38:00,
2013-02-19 17:43:00,42.1,37.9,30.79,East,100,3.5,3.5,85,0.00,FEW,,0.00,WeatherDisplay:10.37,2013-02-19 17:43:00,
2013-02-19 17:48:00,42.1,38.2,30.79,East,100,2.3,2.3,86,0.00,FEW,,0.00,WeatherDisplay:10.37,2013-02-19 17:48:00,
2013-02-19 17:53:00,42.1,38.2,30.79,ENE,78,3.5,3.5,86,0.00,FEW,,0.00,WeatherDisplay:10.37,2013-02-19 17:53:00,
2013-02-19 17:58:00,41.9,38.3,30.79,ENE,78,1.1,1.8,87,0.00,FEW,,0.00,WeatherDisplay:10.37,2013-02-19 17:58:00,
2013-02-19 18:03:00,41.9,38.3,30.79,ESE,122,3.5,3.5,87,0.00,FEW,,0.00,WeatherDisplay:10.37,2013-02-19 18:03:00,
2013-02-19 18:08:00,41.4,37.8,30.79,ESE,122,3.5,3.5,87,0.00,FEW,,0.00,WeatherDisplay:10.37,2013-02-19 18:08:00,
2013-02-19 18:13:00,41.4,38.1,30.79,East,100,3.5,3.5,88,0.00,FEW,,0.00,WeatherDisplay:10.37,2013-02-19 18:13:00,
2013-02-19 18:18:00,41.4,38.4,30.79,ENE,78,2.3,2.5,89,0.00,FEW,,0.00,WeatherDisplay:10.37,2013-02-19 18:18:00,
2013-02-19 18:23:00,41.4,38.4,30.79,ENE,78,3.5,3.5,89,0.00,FEW,,0.00,WeatherDisplay:10.37,2013-02-19 18:23:00,
2013-02-19 18:28:00,41.0,38.0,30.79,ENE,78,2.3,2.3,89,0.00,FEW,,0.00,WeatherDisplay:10.37,2013-02-19 18:28:00,
2013-02-19 18:33:00,40.8,37.8,30.79,East,100,3.5,3.5,89,0.00,FEW,,0.00,WeatherDisplay:10.37,2013-02-19 18:33:00,
2013-02-19 18:38:00,40.8,37.8,30.78,ESE,122,1.1,1.6,89,0.00,FEW,,0.00,WeatherDisplay:10.37,2013-02-19 18:38:00,
2013-02-19 18:43:00,40.5,37.5,30.78,ENE,78,0.0,0.8,89,0.00,FEW,,0.00,WeatherDisplay:10.37,2013-02-19 18:43:00,
2013-02-19 18:48:00,40.1,37.4,30.78,North,10,0.0,0.2,90,0.00,FEW,,0.00,WeatherDisplay:10.37,2013-02-19 18:48:00,
2013-02-19 18:53:00,39.7,37.0,30.78,NW,325,0.0,0.1,90,0.00,FEW,,0.00,WeatherDisplay:10.37,2013-02-19 18:53:00,
2013-02-19 18:58:00,39.7,37.0,30.78,ENE,78,0.0,0.0,90,0.00,FEW,,0.00,WeatherDisplay:10.37,2013-02-19 18:58:00,
2013-02-19 19:03:00,39.2,36.5,30.78,ENE,78,0.0,0.0,90,0.00,FEW,,0.00,WeatherDisplay:10.37,2013-02-19 19:03:00,
2013-02-19 19:08:00,39.0,36.3,30.78,ENE,78,0.0,0.0,90,0.00,FEW,,0.00,WeatherDisplay:10.37,2013-02-19 19:08:00,
2013-02-19 19:13:00,38.7,36.0,30.78,ENE,78,0.0,0.0,90,0.00,FEW,,0.00,WeatherDisplay:10.37,2013-02-19 19:13:00,
2013-02-19 19:18:00,38.8,36.4,30.78,ENE,78,0.0,0.0,91,0.00,FEW,,0.00,WeatherDisplay:10.37,2013-02-19 19:18:00,
2013-02-19 19:23:00,38.8,36.4,30.78,ESE,122,2.8,2.8,91,0.00,FEW,,0.00,WeatherDisplay:10.37,2013-02-19 19:23:00,
2013-02-19 19:28:00,39.0,36.9,30.78,East,100,2.3,2.3,92,0.00,FEW,,0.00,WeatherDisplay:10.37,2013-02-19 19:28:00,
2013-02-19 19:33:00,39.0,36.9,30.78,South,190,1.1,1.6,92,0.00,FEW,,0.00,WeatherDisplay:10.37,2013-02-19 19:33:00,
2013-02-19 19:38:00,38.8,36.7,30.75,ESE,122,1.1,1.2,92,0.00,FEW,,0.00,WeatherDisplay:10.37,2013-02-19 19:38:00,
2013-02-19 19:44:00,39.0,36.9,30.75,East,100,2.3,2.3,92,0.00,FEW,,0.00,WeatherDisplay:10.37,2013-02-19 19:44:00,
2013-02-19 19:49:00,38.7,36.5,30.75,SW,235,1.2,1.2,92,0.00,FEW,,0.00,WeatherDisplay:10.37,2013-02-19 19:49:00,
2013-02-19 19:54:00,39.0,37.2,30.75,ENE,78,1.2,1.2,93,0.00,FEW,,0.00,WeatherDisplay:10.37,2013-02-19 19:54:00,
2013-02-19 19:59:00,38.7,36.8,30.75,SE,145,1.2,1.2,93,0.00,FEW,,0.00,WeatherDisplay:10.37,2013-02-19 19:59:00,
2013-02-19 20:04:00,38.5,36.6,30.75,ENE,78,0.0,0.8,93,0.00,FEW,,0.00,WeatherDisplay:10.37,2013-02-19 20:04:00,
2013-02-19 20:09:00,38.5,36.6,30.75,ENE,78,1.2,1.2,93,0.00,FEW,,0.00,WeatherDisplay:10.37,2013-02-19 20:09:00,
2013-02-19 20:14:00,38.5,36.6,30.75,ESE,122,0.0,0.4,93,0.00,FEW,,0.00,WeatherDisplay:10.37,2013-02-19 20:14:00,
2013-02-19 20:19:00,38.3,36.5,30.75,ENE,78,1.1,1.1,93,0.00,FEW,,0.00,WeatherDisplay:10.37,2013-02-19 20:19:00,
2013-02-19 20:24:00,37.9,36.1,30.75,NW,325,0.0,0.1,93,0.00,FEW,,0.00,WeatherDisplay:10.37,2013-02-19 20:24:00,
2013-02-19 20:29:00,37.9,36.1,30.75,ENE,78,0.0,0.0,93,0.00,FEW,,0.00,WeatherDisplay:10.37,2013-02-19 20:29:00,
2013-02-19 20:34:00,37.6,35.7,30.75,ENE,78,0.0,0.0,93,0.00,FEW,,0.00,WeatherDisplay:10.37,2013-02-19 20:34:00,
2013-02-19 20:39:00,37.0,34.9,30.75,ESE,122,1.1,1.1,92,0.00,FEW,,0.00,WeatherDisplay:10.37,2013-02-19 20:39:00,
2013-02-19 20:44:00,37.0,35.2,30.75,ENE,78,0.0,0.2,93,0.00,FEW,,0.00,WeatherDisplay:10.37,2013-02-19 20:44:00,
2013-02-19 20:49:00,37.2,35.4,30.75,ENE,78,2.3,2.3,93,0.00,FEW,,0.00,WeatherDisplay:10.37,2013-02-19 20:49:00,
2013-02-19 20:54:00,37.0,35.2,30.75,ESE,122,1.1,1.1,93,0.00,FEW,,0.00,WeatherDisplay:10.37,2013-02-19 20:54:00,
2013-02-19 20:59:00,37.0,35.2,30.72,ENE,78,0.0,0.4,93,0.00,FEW,,0.00,WeatherDisplay:10.37,2013-02-19 20:59:00,
2013-02-19 21:04:00,37.2,35.7,30.72,ENE,78,0.0,0.5,94,0.00,FEW,,0.00,WeatherDisplay:10.37,2013-02-19 21:04:00,
2013-02-19 21:09:00,37.2,35.7,30.72,East,100,0.0,0.7,94,0.00,FEW,,0.00,WeatherDisplay:10.37,2013-02-19 21:09:00,
2013-02-19 21:14:00,36.7,34.8,30.72,ENE,78,0.0,0.4,93,0.00,FEW,,0.00,WeatherDisplay:10.37,2013-02-19 21:14:00,
2013-02-19 21:19:00,36.5,34.7,30.72,ENE,78,1.1,1.1,93,0.00,FEW,,0.00,WeatherDisplay:10.37,2013-02-19 21:19:00,
2013-02-19 21:24:00,36.7,35.1,30.72,ENE,78,1.1,1.1,94,0.00,FEW,,0.00,WeatherDisplay:10.37,2013-02-19 21:24:00,
2013-02-19 21:29:00,36.5,34.9,30.72,ENE,78,1.1,1.1,94,0.00,FEW,,0.00,WeatherDisplay:10.37,2013-02-19 21:29:00,
2013-02-19 21:34:00,36.1,34.6,30.72,ENE,78,1.1,1.1,94,0.00,FEW,,0.00,WeatherDisplay:10.37,2013-02-19 21:34:00,
2013-02-19 21:39:00,36.0,34.4,30.72,ENE,78,1.1,1.1,94,0.00,FEW,,0.00,WeatherDisplay:10.37,2013-02-19 21:39:00,
2013-02-19 21:44:00,36.3,34.8,30.72,East,100,2.3,2.3,94,0.00,FEW,,0.00,WeatherDisplay:10.37,2013-02-19 21:44:00,
2013-02-19 21:49:00,36.1,34.6,30.72,ENE,78,1.1,1.1,94,0.00,FEW,,0.00,WeatherDisplay:10.37,2013-02-19 21:49:00,
2013-02-19 21:54:00,36.1,34.6,30.72,ENE,78,1.1,1.1,94,0.00,FEW,,0.00,WeatherDisplay:10.37,2013-02-19 21:54:00,
2013-02-19 21:59:00,36.0,34.4,30.72,ESE,122,1.1,1.1,94,0.00,FEW,,0.00,WeatherDisplay:10.37,2013-02-19 21:59:00,
2013-02-19 22:04:00,35.8,34.2,30.72,ENE,78,0.0,0.4,94,0.00,FEW,,0.00,WeatherDisplay:10.37,2013-02-19 22:04:00,
2013-02-19 22:09:00,35.4,33.9,30.72,ENE,78,0.0,0.0,94,0.00,FEW,,0.00,WeatherDisplay:10.37,2013-02-19 22:09:00,
2013-02-19 22:14:00,35.6,34.0,30.72,ENE,78,2.8,2.8,94,0.00,FEW,,0.00,WeatherDisplay:10.37,2013-02-19 22:14:00,
2013-02-19 22:19:00,36.0,34.7,30.72,ENE,78,2.3,2.3,95,0.00,FEW,,0.00,WeatherDisplay:10.37,2013-02-19 22:19:00,
2013-02-19 22:24:00,36.1,34.8,30.72,East,100,0.0,1.2,95,0.00,FEW,,0.00,WeatherDisplay:10.37,2013-02-19 22:24:00,
2013-02-19 22:29:00,36.0,34.4,30.72,East,100,0.0,0.5,94,0.00,FEW,,0.00,WeatherDisplay:10.37,2013-02-19 22:29:00,
2013-02-19 22:34:00,36.1,34.8,30.72,ENE,78,1.4,1.4,95,0.00,FEW,,0.00,WeatherDisplay:10.37,2013-02-19 22:34:00,
2013-02-19 22:39:00,35.8,34.5,30.72,ENE,78,1.1,1.1,95,0.00,FEW,,0.00,WeatherDisplay:10.37,2013-02-19 22:39:00,
2013-02-19 22:44:00,35.6,34.3,30.72,ENE,78,0.0,0.2,95,0.00,FEW,,0.00,WeatherDisplay:10.37,2013-02-19 22:44:00,
2013-02-19 22:49:00,35.1,33.5,30.72,ENE,78,0.0,0.0,94,0.00,FEW,,0.00,WeatherDisplay:10.37,2013-02-19 22:49:00,
2013-02-19 22:54:00,35.1,33.5,30.72,ENE,78,0.0,0.0,94,0.00,FEW,,0.00,WeatherDisplay:10.37,2013-02-19 22:54:00,
2013-02-19 22:59:00,34.7,33.2,30.72,ENE,78,1.1,1.1,94,0.00,FEW,,0.00,WeatherDisplay:10.37,2013-02-19 22:59:00,
2013-02-19 23:04:00,34.9,33.6,30.72,ENE,78,1.1,1.1,95,0.00,FEW,,0.00,WeatherDisplay:10.37,2013-02-19 23:04:00,
2013-02-19 23:09:00,34.9,33.6,30.72,East,100,1.1,1.1,95,0.00,FEW,,0.00,WeatherDisplay:10.37,2013-02-19 23:09:00,
2013-02-19 23:14:00,34.7,33.4,30.72,ESE,122,0.0,0.1,95,0.00,FEW,,0.00,WeatherDisplay:10.37,2013-02-19 23:14:00,
2013-02-19 23:19:00,34.3,33.1,30.72,ESE,122,0.0,0.0,95,0.00,FEW,,0.00,WeatherDisplay:10.37,2013-02-19 23:19:00,
2013-02-19 23:24:00,34.2,32.9,30.72,SE,145,0.0,0.0,95,0.00,FEW,,0.00,WeatherDisplay:10.37,2013-02-19 23:24:00,
2013-02-19 23:29:00,34.2,32.9,30.72,ENE,78,2.1,2.1,95,0.00,FEW,,0.00,WeatherDisplay:10.37,2013-02-19 23:29:00,
2013-02-19 23:34:00,34.3,33.1,30.72,ENE,78,2.3,2.3,95,0.00,FEW,,0.00,WeatherDisplay:10.37,2013-02-19 23:34:00,
2013-02-19 23:39:00,34.7,33.4,30.72,East,100,2.8,2.8,95,0.00,FEW,,0.00,WeatherDisplay:10.37,2013-02-19 23:39:00,
2013-02-19 23:45:00,35.1,34.0,30.72,ESE,122,2.3,2.3,96,0.00,FEW,,0.00,WeatherDisplay:10.37,2013-02-19 23:45:00,
2013-02-19 23:50:00,35.6,34.6,30.72,ESE,122,2.3,2.3,96,0.00,FEW,,0.00,WeatherDisplay:10.37,2013-02-19 23:50:00,
2013-02-19 23:55:00,35.4,34.4,30.72,ESE,122,1.1,1.1,96,0.00,FEW,,0.00,WeatherDisplay:10.37,2013-02-19 23:55:00,